Flag for Yemen Weather past 2 weeks in Al Hudaydah, Yemen

Now
86 °F

Passing clouds.


Feels Like: 92 °F
Forecast: 77 / 87 °F
Wind: 16 mph from Southwest

Location: Hodeidah

Current Time: Mar 6, 2015 at 2:33:00 PM

Latest Report: Mar 6, 2015 at 2:00 PM


Visibility: N/A

Pressure: 29.89 "Hg

Humidity: 62%

Dew point: 72 °F

Location of Al HudaydahLocation

Historic Weather in Al Hudaydah — Graph

°F

Al Hudaydah temperature yesterday

Maximum temperature yesterday: 86 °F (at 12:00 PM)
Minimum temperature yesterday: 68 °F (at 1:00 PM)
Average temperature yesterday: 81 °F

Past Weeks' High & Low Weather Summary

 TemperatureHumidityPressure
High88 °F (Feb 24, 3:00 PM)100% (Mar 5, 1:00 PM)29.98 "Hg (Mar 5, 1:00 PM)
Low68 °F (Mar 5, 1:00 PM)55% (Mar 2, 1:00 PM)29.77 "Hg (Feb 19, 3:00 PM)
Average81 °F77%29.86 "Hg
* Reported Feb 19 12:00 Noon — Mar 6 12:00 Noon, Al Hudaydah, Weather by CustomWeather, © 2015

Note: Actual official high and low records may vary slightly from our data, if they occured in-between our weather recording intervals... More about our weather records

Advertising

Al Hudaydah weather history for previous 24 hours

 ConditionsComfort  
Time TempWeatherWind HumidityBarometerVisibility
12:00 PM
Fri, Mar 6
86 °FPassing clouds.17 mph66%29.95 "HgN/A
11:00 AM84 °FPassing clouds.16 mph66%29.95 "HgN/A
10:00 AM82 °FPassing clouds.12 mph74%29.98 "Hg6 mi
9:00 AM81 °FPassing clouds.9 mph74%29.95 "Hg6 mi
8:00 AM77 °FClear.5 mph83%29.92 "Hg4 mi
7:00 AM75 °FHaze.5 mph89%29.89 "Hg3 mi
6:00 AM77 °FPassing clouds.8 mph83%29.86 "Hg5 mi
5:00 AM77 °FPassing clouds.8 mph89%29.86 "HgN/A
4:00 AM77 °FPassing clouds.12 mph89%29.83 "HgN/A
3:00 AM79 °FPassing clouds.14 mph84%29.83 "HgN/A
1:00 AM79 °FClear.10 mph89%29.86 "Hg10 mi
12:00 AM79 °FClear.7 mph84%29.86 "Hg10 mi
11:00 PM
Thu, Mar 5
79 °FPassing clouds.3 mph89%29.86 "HgN/A
10:00 PM79 °FClear.6 mph84%29.86 "Hg10 mi
9:00 PM81 °FClear.5 mph79%29.86 "Hg10 mi
8:00 PM81 °FPassing clouds.5 mph84%29.83 "HgN/A
7:00 PM81 °FClear.8 mph84%29.83 "Hg10 mi
6:00 PM82 °FPassing clouds.9 mph79%29.83 "HgN/A
5:00 PM84 °FSunny.9 mph70%29.80 "Hg10 mi
4:00 PM84 °FSunny.15 mph70%29.80 "Hg10 mi
3:00 PM84 °FSunny.14 mph66%29.80 "Hg10 mi
2:00 PM84 °FSunny.16 mph70%29.83 "Hg10 mi
Weather by CustomWeather, © 2015

See weather overviewHow to use our weather pages